Location: Flotzheim
(48.8375°N, 10.8136°E)
Time: 16:21:22
(UTC+00:00)

Cosmos 1833 Rocket - Pass Details

Date: 23 January 2021
Orbit: 833 x 839 km, 71.0° (Epoch: 01 March)

Event Time Altitude Azimuth Distance (km) Brightness Sun altitude
Rises 16:57:14 0° 335° (NNW) 3,392 5.9 -9.4°
Reaches altitude 10° 17:00:11 10° 350° (N) 2,455 5.0 -9.9°
Maximum altitude 17:04:39 24° 43° (NE) 1,686 3.8 -10.6°
Enters shadow 17:08:16 13° 89° (E) 2,217 4.3 -11.1°
